CW7615 Weather Reports


time (UTC)temp
C
wind
direction
speed
KPH
gust
KPH
rain 1hr
cm
rain 24hr
cm
rain mn
cm
humidity
%
barometer
mb
20260504040014 16 325 3.2 9.7 0.00 0.00 0.00 79 1012.6
20260504035515 16 309 3.2 12.9 0.00 0.00 0.00 79 1012.5
20260504035015 16 360 6.4 9.7 0.00 0.00 0.00 79 1012.4
20260504034514 16 355 4.8 8.0 0.00 0.00 0.00 79 1012.5
20260504034019 16 355 3.2 8.0 0.00 0.00 0.00 79 1012.5
20260504033512 16 343 3.2 6.4 0.00 0.00 0.00 79 1012.5
20260504033014 16 327 3.2 4.8 0.00 0.00 0.00 79 1012.5
20260504032512 16 346 3.2 6.4 0.00 0.00 0.00 80 1012.6
20260504032011 16 340 3.2 6.4 0.00 0.00 0.00 80 1012.6
20260504031511 15 309 3.2 6.4 0.00 0.00 0.00 80 1012.5
20260504031012 15 24 0.0 4.8 0.00 0.00 0.00 81 1012.6
20260504030510 15 26 0.0 6.4 0.00 0.00 0.00 81 1012.6
20260504030010 15 26 3.2 6.4 0.00 0.00 0.00 81 1012.7
20260504025510 15 355 0.0 4.8 0.00 0.00 0.00 82 1012.8
20260504025010 15 355 1.6 3.2 0.00 0.00 0.00 81 1012.8
20260504024509 15 355 0.0 4.8 0.00 0.00 0.00 81 1012.8
20260504024009 15 355 0.0 8.0 0.00 0.00 0.00 81 1012.7
20260504023509 15 5 3.2 9.7 0.00 0.00 0.00 81 1012.6
20260504023008 15 355 6.4 9.7 0.00 0.00 0.00 81 1012.6
20260504022511 15 360 4.8 12.9 0.00 0.00 0.00 81 1012.7
20260504022006 15 350 6.4 12.9 0.00 0.00 0.00 81 1012.9
20260504021506 15 5 8.0 12.9 0.00 0.00 0.00 81 1012.8
20260504021009 16 5 4.8 8.0 0.00 0.00 0.00 81 1012.9
20260504020506 16 348 3.2 6.4 0.00 0.00 0.00 81 1012.8
20260504020006 16 344 0.0 4.8 0.00 0.00 0.00 82 1012.9
20260504015508 16 360 0.0 6.4 0.00 0.00 0.00 82 1012.9
20260504015007 16 360 3.2 6.4 0.00 0.00 0.00 82 1012.9
20260504014505 15 5 1.6 6.4 0.00 0.00 0.00 81 1012.9
20260504014004 16 5 3.2 6.4 0.00 0.00 0.00 81 1012.9
20260504013504 16 355 3.2 6.4 0.00 0.00 0.00 82 1013.0
20260504013005 16 355 0.0 3.2 0.00 0.00 0.00 82 1013.0
20260504012503 16 355 0.0 1.6 0.00 0.00 0.00 82 1013.2
20260504012003 16 355 0.0 1.6 0.00 0.00 0.00 82 1013.2
20260504011502 16 355 0.0 1.6 0.00 0.00 0.00 82 1013.2
20260504011001 16 355 0.0 0.0 0.00 0.00 0.00 81 1013.2
20260504010500 16 355 0.0 4.8 0.00 0.00 0.00 81 1013.2
20260504010002 16 355 0.0 4.8 0.00 0.00 0.00 81 1013.1
20260504005600 16 355 3.2 6.4 0.00 0.00 0.00 81 1013.0
20260504005501 16 347 3.2 6.4 0.00 0.00 0.00 81 1013.0
20260504005059 16 349 1.6 6.4 0.00 0.00 0.00 82 1013.3
20260504004600 16 330 3.2 8.0 0.00 0.00 0.00 82 1013.3
20260504004100 16 342 3.2 8.0 0.00 0.00 0.00 84 1013.3
20260504003557 16 71 0.0 0.0 0.00 0.00 0.00 84 1013.4
20260504003056 16 71 0.0 3.2 0.00 0.00 0.00 84 1013.5
20260504002556 16 71 0.0 3.2 0.00 0.00 0.00 84 1013.5
20260504002055 16 71 0.0 1.6 0.00 0.00 0.00 83 1013.5
20260504001601 16 71 0.0 4.8 0.00 0.00 0.00 82 1013.6
20260504001054 16 71 0.0 4.8 0.00 0.00 0.00 82 1013.6
20260504000553 16 67 0.0 3.2 0.00 0.00 0.00 81 1013.6
20260504000056 16 67 0.0 4.8 0.00 0.00 0.00 80 1013.6
20260503235556 16 67 0.0 4.8 0.00 0.00 0.00 80 1013.7
20260503235053 17 28 1.6 9.7 0.00 0.00 0.00 79 1013.7
20260503234553 17 26 4.8 9.7 0.00 0.00 0.00 79 1013.6
20260503234055 17 355 6.4 12.9 0.00 0.00 0.00 79 1013.6
20260503233552 16 331 6.4 12.9 0.00 0.00 0.00 79 1013.6
20260503233100 16 355 6.4 14.5 0.00 0.00 0.00 79 1013.6
20260503232550 16 348 8.0 14.5 0.00 0.00 0.00 80 1013.6
20260503232050 16 355 4.8 12.9 0.00 0.00 0.00 80 1013.7
20260503231550 16 360 6.4 14.5 0.00 0.00 0.00 80 1013.6
20260503231050 16 13 6.4 12.9 0.00 0.00 0.00 81 1013.6
20260503230549 16 338 4.8 12.9 0.00 0.00 0.00 81 1013.6
20260503230049 16 355 3.2 8.0 0.00 0.00 0.00 82 1013.6
20260503225549 16 319 3.2 6.4 0.00 0.00 0.00 82 1013.8
20260503225049 16 299 3.2 6.4 0.00 0.00 0.00 82 1013.7
20260503224548 16 333 3.2 6.4 0.00 0.00 0.00 82 1013.7
20260503224047 16 355 0.0 4.8 0.00 0.00 0.00 82 1013.8
20260503223546 16 355 0.0 1.6 0.00 0.00 0.00 82 1013.9
20260503223046 16 355 0.0 4.8 0.00 0.00 0.00 82 1014.0
20260503222545 16 355 1.6 4.8 0.00 0.00 0.00 82 1014.0
20260503222045 16 5 0.0 1.6 0.00 0.00 0.00 83 1014.1
20260503221553 16 5 0.0 0.0 0.00 0.00 0.00 82 1014.2
20260503221043 16 5 0.0 0.0 0.00 0.00 0.00 82 1014.0
20260503220543 16 5 0.0 0.0 0.00 0.00 0.00 82 1014.1
20260503220050 17 5 0.0 0.0 0.00 0.00 0.00 81 1014.0
20260503215641 17 5 0.0 1.6 0.00 0.00 0.00 81 1014.0
20260503215041 17 5 0.0 3.2 0.00 0.00 0.00 80 1014.1
20260503214542 17 5 1.6 6.4 0.00 0.00 0.00 80 1014.0
20260503214040 17 5 3.2 6.4 0.00 0.00 0.00 81 1013.9
20260503213543 17 346 3.2 6.4 0.00 0.00 0.00 81 1013.8
20260503213040 17 350 3.2 6.4 0.00 0.00 0.00 81 1013.8
20260503212540 17 327 4.8 6.4 0.00 0.00 0.00 81 1013.8
20260503212040 17 360 3.2 4.8 0.00 0.00 0.00 81 1013.8
20260503211541 17 24 1.6 4.8 0.00 0.00 0.00 81 1013.7
20260503211040 17 24 0.0 0.0 0.00 0.00 0.00 81 1013.7
20260503210540 17 24 0.0 0.0 0.00 0.00 0.00 81 1013.7
20260503210049 17 25 0.0 3.2 0.00 0.00 0.00 80 1013.7
20260503205540 17 25 0.0 3.2 0.00 0.00 0.00 80 1013.6
20260503205040 17 22 0.0 1.6 0.00 0.00 0.00 79 1013.5
20260503204555 17 22 0.0 3.2 0.00 0.00 0.00 78 1013.4
20260503204039 17 22 1.6 6.4 0.00 0.00 0.00 78 1013.3
20260503203538 17 22 1.6 6.4 0.00 0.00 0.00 77 1013.3
20260503203039 17 27 4.8 9.7 0.00 0.00 0.00 77 1013.3
20260503202539 17 5 4.8 8.0 0.00 0.00 0.00 77 1013.3
20260503202039 17 337 3.2 8.0 0.00 0.00 0.00 77 1013.2
20260503201539 17 11 3.2 6.4 0.00 0.00 0.00 76 1013.2
20260503201038 18 15 3.2 8.0 0.00 0.00 0.00 76 1013.2
20260503200538 18 355 3.2 8.0 0.00 0.00 0.00 75 1013.2
20260503200044 18 44 3.2 6.4 0.00 0.00 0.00 75 1013.0
20260503195539 18 154 0.0 1.6 0.00 0.00 0.00 75 1012.9
20260503195037 18 154 0.0 1.6 0.00 0.00 0.00 75 1012.8
20260503194537 18 154 0.0 1.6 0.00 0.00 0.00 74 1012.7
20260503194037 18 154 0.0 3.2 0.00 0.00 0.00 74 1012.6
20260503193537 18 154 0.0 4.8 0.00 0.00 0.00 73 1012.7
20260503193036 18 154 0.0 4.8 0.00 0.00 0.00 73 1012.6
20260503192536 18 163 1.6 4.8 0.00 0.00 0.00 72 1012.5
20260503192037 18 176 0.0 6.4 0.00 0.00 0.00 72 1012.5
20260503191536 18 176 0.0 8.0 0.00 0.00 0.00 71 1012.5
20260503191036 19 196 1.6 6.4 0.00 0.00 0.00 71 1012.5
20260503190537 19 178 1.6 4.8 0.00 0.00 0.00 71 1012.4
20260503190044 19 180 1.6 3.2 0.00 0.00 0.00 72 1012.4
20260503185535 19 184 0.0 1.6 0.00 0.00 0.00 72 1012.3
20260503185035 19 184 0.0 4.8 0.00 0.00 0.00 72 1012.1
20260503184536 20 184 1.6 4.8 0.00 0.00 0.00 71 1012.1
20260503184034 20 184 0.0 6.4 0.00 0.00 0.00 71 1012.1
20260503183535 20 184 1.6 6.4 0.00 0.00 0.00 71 1012.1
20260503183033 20 169 3.2 6.4 0.00 0.00 0.00 70 1012.1
20260503182533 20 181 3.2 8.0 0.00 0.00 0.00 69 1012.2
20260503182032 20 203 1.6 8.0 0.00 0.00 0.00 69 1012.3
20260503181534 20 184 3.2 6.4 0.00 0.00 0.00 68 1012.4
20260503181032 20 183 0.0 3.2 0.00 0.00 0.00 68 1012.4
20260503180532 20 182 0.0 4.8 0.00 0.00 0.00 69 1012.3
20260503180032 20 182 0.0 8.0 0.00 0.00 0.00 68 1012.4
20260503175532 20 178 1.6 9.7 0.00 0.00 0.00 68 1012.3
20260503175030 20 180 1.6 9.7 0.00 0.00 0.00 70 1012.4
20260503174530 20 168 1.6 9.7 0.00 0.00 0.00 71 1012.5
20260503174029 20 173 4.8 14.5 0.00 0.00 0.00 71 1012.5
20260503173530 20 152 6.4 14.5 0.00 0.00 0.00 71 1012.5
20260503173036 20 155 6.4 12.9 0.00 0.00 0.00 71 1012.5
20260503172528 21 147 3.2 14.5 0.00 0.00 0.00 72 1012.6
20260503172029 21 198 8.0 14.5 0.00 0.00 0.00 71 1012.6
20260503171528 21 181 3.2 12.9 0.00 0.00 0.00 73 1012.6
20260503171028 21 190 4.8 12.9 0.00 0.00 0.00 73 1012.6
20260503170527 21 198 3.2 14.5 0.00 0.00 0.00 72 1012.7
20260503150516 21 109 11.3 16.1 0.00 0.00 0.00 74 1013.5
20260503131002 19 106 8.0 19.3 0.00 0.00 0.00 82 1014.9
20260503130502 19 98 4.8 17.7 0.00 0.00 0.00 82 1015.0
20260503120113 20 121 12.9 19.3 0.00 0.00 0.00 78 1015.5
20260503110554 19 106 8.0 17.7 0.00 0.00 0.00 80 1016.0
20260503081547 17 119 0.0 0.0 0.00 0.00 0.00 89 1016.0
20260503081030 17 119 0.0 0.0 0.00 0.00 0.00 89 1016.0
20260503080530 17 119 0.0 0.0 0.00 0.00 0.00 89 1016.1
20260503072527 17 119 0.0 3.2 0.00 0.00 0.00 88 1015.6
20260503072025 17 119 0.0 4.8 0.00 0.00 0.00 88 1015.6
20260503071535 17 119 1.6 4.8 0.00 0.00 0.00 88 1015.6
20260503071026 17 121 0.0 4.8 0.00 0.00 0.00 87 1015.7
20260503070523 17 134 0.0 6.4 0.00 0.00 0.00 87 1015.5
20260503055023 17 12 3.2 6.4 0.00 0.00 0.00 84 1014.6
20260503054532 17 13 0.0 4.8 0.00 0.00 0.00 84 1014.5
20260503054019 17 13 0.0 8.0 0.00 0.00 0.00 84 1014.7
20260503053518 17 16 4.8 8.0 0.00 0.00 0.00 84 1014.5
20260503053120 17 5 4.8 6.4 0.00 0.00 0.00 84 1014.3
20260503052524 17 5 3.2 9.7 0.00 0.00 0.00 84 1014.5
20260503052017 17 5 4.8 9.7 0.00 0.00 0.00 84 1014.4
20260503051518 17 5 4.8 9.7 0.00 0.00 0.00 84 1014.4
20260503051017 17 5 4.8 9.7 0.00 0.00 0.00 84 1014.4
20260503050517 17 13 4.8 12.9 0.00 0.00 0.00 84 1014.4
20260503050015 17 30 6.4 12.9 0.00 0.00 0.00 84 1014.4
20260503045515 17 5 4.8 9.7 0.00 0.00 0.00 84 1014.5
20260503045018 17 17 6.4 9.7 0.00 0.00 0.00 85 1014.5
20260503044525 17 20 4.8 9.7 0.00 0.00 0.00 85 1014.9
20260503044012 17 10 4.8 9.7 0.00 0.00 0.00 85 1014.9
20260503043512 17 13 6.4 11.3 0.00 0.00 0.00 85 1015.0
20260503043013 17 9 4.8 8.0 0.00 0.00 0.00 85 1014.9
20260503042511 17 41 3.2 8.0 0.00 0.00 0.00 85 1015.0
20260503042010 17 5 3.2 8.0 0.00 0.00 0.00 85 1015.1
20260503041513 17 5 4.8 8.0 0.00 0.00 0.00 85 1015.0
20260503041010 17 360 4.8 8.0 0.00 0.00 0.00 85 1015.1
20260503040510 17 10 3.2 6.4 0.00 0.00 0.00 85 1015.1